TimeEDT,TemperatureF,Dew PointF,Humidity,Sea Level PressureIn,VisibilityMPH,Wind Direction,Wind SpeedMPH,Gust SpeedMPH,PrecipitationIn,Events,Conditions,WindDirDegrees,DateUTC
12:15 AM,60.1,60.1,100,29.99,10.0,Calm,Calm,-,N/A,,Clear,0,2013-08-02 04:15:00
12:35 AM,60.1,60.1,100,29.99,10.0,Calm,Calm,-,N/A,,Clear,0,2013-08-02 04:35:00
12:55 AM,59.0,59.0,100,30.00,10.0,Calm,Calm,-,N/A,,Clear,0,2013-08-02 04:55:00
1:15 AM,59.7,59.7,100,30.00,10.0,Calm,Calm,-,N/A,,Clear,0,2013-08-02 05:15:00
1:35 AM,59.0,59.0,100,30.00,10.0,Calm,Calm,-,N/A,,Clear,0,2013-08-02 05:35:00
1:55 AM,58.6,58.6,100,30.00,10.0,Calm,Calm,-,N/A,,Mostly Cloudy,0,2013-08-02 05:55:00
2:15 AM,59.9,59.9,100,29.99,10.0,Calm,Calm,-,N/A,,Mostly Cloudy,0,2013-08-02 06:15:00
2:35 AM,59.0,59.0,100,29.99,10.0,Calm,Calm,-,N/A,,Scattered Clouds,0,2013-08-02 06:35:00
2:55 AM,59.0,59.0,100,29.99,10.0,Calm,Calm,-,N/A,,Clear,0,2013-08-02 06:55:00
3:15 AM,58.1,58.1,100,29.99,10.0,Calm,Calm,-,N/A,,Scattered Clouds,0,2013-08-02 07:15:00
3:35 AM,57.7,57.7,100,29.99,10.0,Calm,Calm,-,N/A,,Scattered Clouds,0,2013-08-02 07:35:00
3:55 AM,58.1,58.1,100,30.00,10.0,Calm,Calm,-,N/A,,Clear,0,2013-08-02 07:55:00
4:15 AM,57.7,57.7,100,30.00,7.0,Calm,Calm,-,N/A,,Clear,0,2013-08-02 08:15:00
4:35 AM,56.8,56.8,100,30.00,7.0,Calm,Calm,-,N/A,,Clear,0,2013-08-02 08:35:00
4:55 AM,57.6,57.6,100,30.00,7.0,Calm,Calm,-,N/A,,Clear,0,2013-08-02 08:55:00
5:15 AM,57.7,57.7,100,30.00,7.0,Calm,Calm,-,N/A,,Clear,0,2013-08-02 09:15:00
5:35 AM,55.4,55.4,100,30.01,1.0,Calm,Calm,-,N/A,,Mist,0,2013-08-02 09:35:00
5:55 AM,56.5,56.5,100,30.01,5.0,Calm,Calm,-,N/A,,Clear,0,2013-08-02 09:55:00
6:15 AM,55.4,55.4,100,30.02,5.0,Calm,Calm,-,N/A,,Clear,0,2013-08-02 10:15:00
6:35 AM,55.4,55.4,100,30.02,2.0,Calm,Calm,-,N/A,,Clear,0,2013-08-02 10:35:00
6:55 AM,55.4,55.4,100,30.01,0.5,Calm,Calm,-,N/A,Fog,Fog,0,2013-08-02 10:55:00
7:15 AM,55.4,55.4,100,30.01,1.2,Calm,Calm,-,N/A,,Mist,0,2013-08-02 11:15:00
7:35 AM,57.7,57.7,100,30.02,4.0,Calm,Calm,-,N/A,,Clear,0,2013-08-02 11:35:00
7:55 AM,57.7,57.7,100,30.03,7.0,Calm,Calm,-,N/A,,Clear,0,2013-08-02 11:55:00
8:35 AM,60.6,60.6,100,30.03,10.0,Calm,Calm,-,N/A,,Clear,0,2013-08-02 12:35:00
8:55 AM,62.6,62.6,100,30.03,10.0,Calm,Calm,-,N/A,,Clear,0,2013-08-02 12:55:00
9:15 AM,67.6,66.2,95,30.03,10.0,Calm,Calm,-,N/A,,Clear,0,2013-08-02 13:15:00
9:35 AM,67.6,64.4,89,30.02,10.0,Calm,Calm,-,N/A,,Clear,0,2013-08-02 13:35:00
9:55 AM,68.9,63.9,84,30.02,10.0,Calm,Calm,-,N/A,,Clear,0,2013-08-02 13:55:00
10:15 AM,72.7,67.1,83,30.02,10.0,SW,4.6,-,N/A,,Scattered Clouds,220,2013-08-02 14:15:00
10:35 AM,72.7,66.2,80,30.02,10.0,SSW,3.5,-,N/A,,Clear,210,2013-08-02 14:35:00
10:55 AM,72.7,64.0,74,30.03,10.0,SW,4.6,-,N/A,,Clear,230,2013-08-02 14:55:00
11:15 AM,75.0,66.4,74,30.03,10.0,SW,4.6,-,N/A,,Clear,230,2013-08-02 15:15:00
11:35 AM,75.2,66.2,73,30.03,10.0,SW,6.9,-,N/A,,Clear,230,2013-08-02 15:35:00
11:55 AM,75.2,65.3,71,30.03,10.0,SW,5.8,-,N/A,,Clear,230,2013-08-02 15:55:00
12:15 PM,75.4,64.0,68,30.03,10.0,SSW,9.2,-,N/A,,Clear,210,2013-08-02 16:15:00
12:35 PM,77.9,65.1,65,30.03,10.0,SSW,8.1,-,N/A,,Clear,210,2013-08-02 16:35:00
12:55 PM,77.9,64.0,62,30.04,10.0,WSW,10.4,-,N/A,,Clear,250,2013-08-02 16:55:00
1:15 PM,77.9,63.5,61,30.03,10.0,SSW,6.9,-,N/A,,Clear,210,2013-08-02 17:15:00
1:35 PM,77.9,63.9,62,30.03,10.0,WSW,6.9,-,N/A,,Clear,240,2013-08-02 17:35:00
1:55 PM,79.0,64.4,61,30.03,10.0,WSW,4.6,-,N/A,,Clear,240,2013-08-02 17:55:00
2:15 PM,79.0,64.8,62,30.03,10.0,West,10.4,-,N/A,,Clear,260,2013-08-02 18:15:00
2:35 PM,79.0,65.7,64,30.02,10.0,WSW,10.4,-,N/A,,Clear,250,2013-08-02 18:35:00
2:55 PM,80.2,65.7,61,30.02,10.0,West,9.2,18.4,N/A,,Clear,260,2013-08-02 18:55:00
3:15 PM,80.2,65.7,61,30.02,10.0,West,9.2,-,N/A,,Clear,260,2013-08-02 19:15:00
3:35 PM,80.2,65.1,60,30.01,10.0,WSW,11.5,-,N/A,,Clear,240,2013-08-02 19:35:00
3:55 PM,80.2,65.3,60,30.00,10.0,SW,11.5,-,N/A,,Clear,220,2013-08-02 19:55:00
4:15 PM,80.2,66.2,62,30.00,10.0,WSW,9.2,17.3,N/A,,Clear,250,2013-08-02 20:15:00
4:35 PM,80.2,66.6,63,30.00,10.0,WSW,9.2,-,N/A,,Clear,250,2013-08-02 20:35:00
4:55 PM,80.4,66.6,63,29.99,10.0,West,10.4,-,N/A,,Scattered Clouds,260,2013-08-02 20:55:00
5:15 PM,81.3,66.9,61,29.98,10.0,West,10.4,-,N/A,,Clear,270,2013-08-02 21:15:00
5:35 PM,80.2,65.5,61,29.98,10.0,WSW,12.7,-,N/A,,Clear,240,2013-08-02 21:35:00
5:55 PM,79.0,65.7,64,29.98,10.0,WSW,9.2,-,N/A,,Clear,250,2013-08-02 21:55:00
6:15 PM,78.6,66.4,66,29.98,10.0,WSW,15.0,-,N/A,,Clear,240,2013-08-02 22:15:00
6:35 PM,77.9,66.4,68,29.98,10.0,WSW,12.7,18.4,N/A,,Clear,250,2013-08-02 22:35:00
6:55 PM,77.9,67.8,71,29.98,10.0,WSW,9.2,12.7,N/A,,Clear,240,2013-08-02 22:55:00
7:15 PM,75.4,65.7,72,29.98,10.0,SW,8.1,-,N/A,,Scattered Clouds,230,2013-08-02 23:15:00
7:35 PM,75.2,66.6,74,29.98,10.0,SW,10.4,-,N/A,,Mostly Cloudy,230,2013-08-02 23:35:00
7:55 PM,75.2,66.9,75,29.98,10.0,SW,8.1,-,N/A,,Overcast,230,2013-08-02 23:55:00
8:15 PM,75.2,67.8,78,29.98,10.0,WSW,6.9,-,N/A,,Mostly Cloudy,240,2013-08-03 00:15:00
8:35 PM,75.2,68.0,78,29.98,10.0,SW,6.9,-,N/A,,Overcast,230,2013-08-03 00:35:00
8:55 PM,75.2,68.7,80,29.99,10.0,WSW,5.8,-,N/A,,Mostly Cloudy,240,2013-08-03 00:55:00
9:15 PM,72.7,68.0,85,29.99,10.0,SW,3.5,-,N/A,,Mostly Cloudy,230,2013-08-03 01:15:00
9:35 PM,72.7,68.2,86,29.99,10.0,WSW,3.5,-,N/A,,Mostly Cloudy,240,2013-08-03 01:35:00
9:55 PM,72.7,69.1,88,30.00,10.0,WSW,5.8,-,N/A,,Mostly Cloudy,240,2013-08-03 01:55:00
10:15 PM,72.7,69.8,91,30.00,10.0,SW,3.5,-,N/A,,Overcast,230,2013-08-03 02:15:00
10:35 PM,72.7,69.4,90,30.00,10.0,Calm,Calm,-,N/A,,Mostly Cloudy,0,2013-08-03 02:35:00
10:55 PM,72.7,70.7,93,29.99,10.0,SW,4.6,-,N/A,,Mostly Cloudy,220,2013-08-03 02:55:00
11:15 PM,72.7,69.8,91,29.98,10.0,SW,4.6,-,N/A,,Scattered Clouds,220,2013-08-03 03:15:00
11:35 PM,72.7,69.8,91,29.98,10.0,SSW,4.6,-,N/A,,Overcast,210,2013-08-03 03:35:00
11:55 PM,72.7,70.3,92,29.98,10.0,WSW,4.6,-,N/A,,Overcast,240,2013-08-03 03:55:00